FENGYUN 1C DEB, 30327

Orbit data source: Space-Track

FENGYUN 1C DEB, 30327 is space debris in SSO originally from a launch on Mon, 10 May 1999 UTC launched from the Taiyaun Space Center, China (TSC). Fengyun 1C debris stems from the Chinese weather satellite Fengyun-1C, which was intentionally destroyed by a Chinese anti-satellite missile in 2007. This event dramatically increased the amount of space debris, with thousands of trackable fragments posing hazards to satellites and human spaceflight. The Fengyun 1C debris cloud has become a focal point in discussions about space sustainability and the need for international regulations to prevent the creation of new debris.

Loading next visibility...
FENGYUN 1C DEB details
Identifier
30327, 1999-025AAN
Orbit
SSO
Last TLE update21 hours ago
Origin
Flag of CNCASC (CN / PRC)
ManufacturerUnknown
MissionSpacecraft
Bus & MotorUnknown
MassUnknown
Launch date (UTC)
1999-05-10 (26 years ago)
Launch vehicleUnknown
Launch site
Taiyaun Space Center, China (TSC)
Object type
Payload
Rocket body
Debris
Shape & HBRUnknown
Radar Cross SectionSmall (<0.1 m²)

Expand to show TLE details & history

TLE from 21 hours ago
0 FENGYUN 1C DEB
1 30327U 99025AAN 24355.72835579  .00005489  00000-0  27084-2 0  9994
2 30327  98.4573 262.0871 0125323  92.3168 324.6792 14.13791672913900
Epoch: 2024-12-20T17:28Z
Definitive object data (Epoch: 2024-12-20T17:28:49.94Z)
Latitude55.33792°
Longitude-102.26117°
Altitude782.075 km
Speed7.506 km/s
True Right ascension16h 38m 56s
True Declination55° 10' 39"
Sunlit
Object was in daylight at TLE epoch
Visualization TLE readout
Latitude-6.57669°
Longitude89.93973°
Altitude859.821 km
Speed7.417 km/s
Apparent Right ascension03h 53m 38s
Apparent Declination-24° 51' 53"
Sunlit
Object is in full shadow
Visualization observer readout
Local Sidereal Time13:30:09
Azimuth285.683° WNW
Elevation-56.481°
Doppler factor1
Orbital elements
Apogee altitude934.085 km
Perigee altitude753.075 km
Semi-major axis7,221.717 km
Eccentricity0.0125323
Inclination98.4573°
RAAN262.0871°
Arg. of periapsis92.3168°
True anomaly323.8382°
Mean anomaly324.6792°
Eccentric anomaly324.25978°
Mean motion3.53657 °/min
BSTAR0.0027084
Orbital period101.79 mins
Loading maneuver chart data...
Loading historical data...
Loading historical data...
Loading historical data...
Loading historical data...
Loading historical data...
Loading historical data...
Loading historical data...

FENGYUN 1C DEB Visibility forecast

Observer location: undefined°, undefined

Span
Click to sort rows by Start time (UTC) header in descending order
Start Az.
Max El. time (UTC)
Max El. Az.
Max El.
End time (UTC)
End Az.
8 mins2024-12-21 17:08:01.086Z126.174° SE2024-12-21 17:12:01.086Z67.85° E27.638°2024-12-21 17:16:01.086Z9.748° NNE
6 mins2024-12-21 18:50:01.086Z219.526° SW2024-12-21 18:53:01.086Z272.206° WNW25.729°2024-12-21 18:56:01.086Z316.371° NNW
8 mins2024-12-22 07:10:01.086Z3.679° NNE2024-12-22 07:14:01.086Z265.138° W41.701°2024-12-22 07:18:01.086Z207.588° SW
|